This is the latest recevied weather packets stored in our database for station/object PP5FMM-13. If no packets are shown the sender has not sent any weather packets the latest 10 day(s).
| Time | Temp. | Humidity | Pressure | Rain* | Wind** | Luminosity | Snow |
|---|---|---|---|---|---|---|---|
| 1777359327 | 24.44° C | 56% | 1016.3 hPa | - | - | - | - |
| 1777359027 | 24.44° C | 66% | 1016.4 hPa | - | - | - | - |
| 1777358727 | 24.44° C | 67% | 1016.5 hPa | - | - | - | - |
| 1777358427 | 24.44° C | 66% | 1016.5 hPa | - | - | - | - |
| 1777358127 | 24.44° C | 60% | 1016.6 hPa | - | - | - | - |
| 1777357827 | 24.44° C | 62% | 1016.4 hPa | - | - | - | - |
| 1777357527 | 24.44° C | 64% | 1016.4 hPa | - | - | - | - |
| 1777357227 | 24.44° C | 67% | 1016.4 hPa | - | - | - | - |
| 1777356927 | 24.44° C | 66% | 1016.5 hPa | - | - | - | - |
| 1777356627 | 24.44° C | 73% | 1016.5 hPa | - | - | - | - |
| 1777356328 | 24.44° C | 71% | 1016.4 hPa | - | - | - | - |
| 1777356027 | 25° C | 71% | 1016.4 hPa | - | - | - | - |
| 1777355727 | 25° C | 68% | 1016.4 hPa | - | - | - | - |
| 1777355427 | 25° C | 78% | 1016.5 hPa | - | - | - | - |
| 1777355127 | 25° C | 75% | 1016.5 hPa | - | - | - | - |
| 1777354827 | 25° C | 78% | 1016.5 hPa | - | - | - | - |
| 1777354527 | 25.56° C | 78% | 1016.6 hPa | - | - | - | - |
| 1777354227 | 25.56° C | 78% | 1016.7 hPa | - | - | - | - |
| 1777353927 | 25.56° C | 79% | 1016.7 hPa | - | - | - | - |
| 1777353627 | 25.56° C | 79% | 1016.7 hPa | - | - | - | - |
| 1777353327 | 25.56° C | 78% | 1016.8 hPa | - | - | - | - |
| 1777353027 | 25.56° C | 78% | 1016.8 hPa | - | - | - | - |
| 1777352727 | 25.56° C | 78% | 1016.7 hPa | - | - | - | - |
| 1777352427 | 25.56° C | 78% | 1016.7 hPa | - | - | - | - |
| 1777352127 | 25.56° C | 78% | 1016.7 hPa | - | - | - | - |
* Rain since midnight (hover to see other rain measurements)
** Current wind speed in m/s (hover to see current wind gust speed)